2023/05/01 00:00:00,13.9, 7.0
2023/05/01 00:10:00,13.5, 6.9
2023/05/01 00:20:00,---, 6.8
2023/05/01 00:30:00,12.9, 6.7
2023/05/01 00:40:00,11.4, 6.7
2023/05/01 00:50:00,10.5, 6.6
2023/05/01 01:00:00,14.0, 7.0
2023/05/01 01:10:00,10.7, 6.4
2023/05/01 01:20:00, 5.0, 6.5
2023/05/01 01:30:00,10.6, 6.6
2023/05/01 01:40:00, 8.5, 6.4
2023/05/01 01:50:00, 3.9, 6.0
2023/05/01 02:00:00, 1.5, 6.0
2023/05/01 02:10:00, 4.0, 6.0
2023/05/01 02:20:00, 3.3, 6.0
2023/05/01 02:30:00, 0.9, 5.9
2023/05/01 02:40:00, 3.6, 6.0
2023/05/01 02:50:00, 8.5, 6.5
2023/05/01 03:00:00,13.3, 5.9
2023/05/01 03:10:00,10.1, 6.0
2023/05/01 03:20:00, 9.3, 5.9
2023/05/01 03:30:00, 3.8, 5.9
2023/05/01 03:40:00,13.2, 5.6
2023/05/01 03:50:00,14.8, 6.2
2023/05/01 04:00:00,11.0, 5.6
2023/05/01 04:10:00, 4.0, 5.4
2023/05/01 04:20:00, 9.4, 5.3
2023/05/01 04:30:00,10.7, 5.6
2023/05/01 04:40:00, 3.2, 5.2
2023/05/01 04:50:00, 5.0, 5.1
2023/05/01 05:00:00, 4.3, 5.1
2023/05/01 05:10:00, 4.4, 5.0
2023/05/01 05:20:00, 4.1, 5.2
2023/05/01 05:30:00, 5.7, 5.1
2023/05/01 05:40:00, 7.9, 5.0
2023/05/01 05:50:00,13.9, 5.2
2023/05/01 06:00:00,10.6, 5.3
2023/05/01 06:10:00, 8.1, 5.2
2023/05/01 06:20:00, 7.8, 5.3
2023/05/01 06:30:00, 5.2, 5.5
2023/05/01 06:40:00,10.1, 6.0
2023/05/01 06:50:00, 6.6, 6.4
2023/05/01 07:00:00, 6.1, 6.9
2023/05/01 07:10:00, 4.9, 7.3
2023/05/01 07:20:00, 0.9, 8.3
2023/05/01 07:30:00, 0.1, 7.8
2023/05/01 07:40:00, 0.5, 8.7
2023/05/01 07:50:00, 1.0, 9.4
2023/05/01 08:00:00, 1.3, 9.8
2023/05/01 08:10:00, 0.7,10.6
2023/05/01 08:20:00,---,11.5
2023/05/01 08:30:00,10.9,12.4
2023/05/01 08:40:00,11.2,12.8
2023/05/01 08:50:00,---,13.9
2023/05/01 09:00:00,---,15.5
2023/05/01 09:10:00,---,15.9
2023/05/01 09:20:00,---,17.6
2023/05/01 09:30:00,---,18.7
2023/05/01 09:40:00, 0.0,19.9
2023/05/01 09:50:00, 0.0,20.0
2023/05/01 10:00:00,---,19.8
2023/05/01 10:10:00, 0.6,18.5
2023/05/01 10:20:00, 0.0,19.7
2023/05/01 10:30:00, 0.0,18.4
2023/05/01 10:40:00, 0.0,19.8
2023/05/01 10:50:00, 0.0,19.5
2023/05/01 11:00:00, 0.0,20.2
2023/05/01 11:10:00, 0.2,20.0
2023/05/01 11:20:00, 0.0,18.7
2023/05/01 11:30:00, 0.0,18.3
2023/05/01 11:40:00, 4.7,19.1
2023/05/01 11:50:00, 0.0,19.8
2023/05/01 12:00:00, 0.0,20.4
2023/05/01 12:10:00, 0.5,18.2
2023/05/01 12:20:00, 3.6,16.6
2023/05/01 12:30:00, 5.5,17.8
2023/05/01 12:40:00, 7.4,17.2
2023/05/01 12:50:00, 9.5,17.2
2023/05/01 13:00:00, 9.0,17.3
2023/05/01 13:10:00,---,16.8
2023/05/01 13:20:00, 4.5,16.7
2023/05/01 13:30:00, 3.2,17.5
2023/05/01 13:40:00, 8.7,18.5
2023/05/01 13:50:00, 7.4,18.1
2023/05/01 14:00:00, 8.1,18.3
2023/05/01 14:10:00, 7.6,17.2
2023/05/01 14:20:00, 1.5,18.5
2023/05/01 14:30:00, 0.1,19.4
2023/05/01 14:40:00, 0.6,19.5
2023/05/01 14:50:00, 0.3,18.9
2023/05/01 15:00:00, 1.0,18.4
2023/05/01 15:10:00, 0.0,19.7
2023/05/01 15:20:00, 2.3,18.9
2023/05/01 15:30:00, 0.0,17.8
2023/05/01 15:40:00, 0.0,18.2
2023/05/01 15:50:00, 0.0,19.1
2023/05/01 16:00:00, 0.0,18.0
2023/05/01 16:10:00, 0.1,17.5
2023/05/01 16:20:00, 0.2,17.6
2023/05/01 16:30:00, 0.0,18.2
2023/05/01 16:40:00, 0.0,18.6
2023/05/01 16:50:00, 1.0,17.9
2023/05/01 17:00:00, 1.0,17.3
2023/05/01 17:10:00, 0.0,17.7
2023/05/01 17:20:00, 0.1,17.4
2023/05/01 17:30:00, 0.0,16.9
2023/05/01 17:40:00, 0.0,15.5
2023/05/01 17:50:00, 0.2,14.8
2023/05/01 18:00:00, 0.5,14.5
2023/05/01 18:10:00, 0.9,14.1
2023/05/01 18:20:00, 0.5,13.7
2023/05/01 18:30:00, 8.6,13.7
2023/05/01 18:40:00,13.4,13.1
2023/05/01 18:50:00,12.8,12.4
2023/05/01 19:00:00,13.5,11.7
2023/05/01 19:10:00,13.3,11.2
2023/05/01 19:20:00,13.2,10.9
2023/05/01 19:30:00,13.9,10.3
2023/05/01 19:40:00,13.5,10.0
2023/05/01 19:50:00,12.4, 9.7
2023/05/01 20:00:00,12.2, 9.5
2023/05/01 20:10:00,10.7, 9.2
2023/05/01 20:20:00,10.0, 8.9
2023/05/01 20:30:00,10.4, 8.7
2023/05/01 20:40:00, 9.4, 8.8
2023/05/01 20:50:00, 8.3, 8.9
2023/05/01 21:00:00, 9.2, 8.2
2023/05/01 21:10:00, 8.4, 8.0
2023/05/01 21:20:00, 7.7, 7.8
2023/05/01 21:30:00, 2.0, 8.0
2023/05/01 21:40:00, 7.9, 7.7
2023/05/01 21:50:00, 7.7, 7.3
2023/05/01 22:00:00, 5.9, 7.2
2023/05/01 22:10:00, 4.1, 7.1
2023/05/01 22:20:00, 3.9, 7.0
2023/05/01 22:30:00, 3.3, 6.8
2023/05/01 22:40:00, 2.8, 6.8
2023/05/01 22:50:00, 2.6, 6.5
2023/05/01 23:00:00, 4.0, 6.5
2023/05/01 23:10:00, 3.7, 6.2
2023/05/01 23:20:00, 3.6, 6.1
2023/05/01 23:30:00, 3.7, 6.1
2023/05/01 23:40:00, 4.0, 6.0
2023/05/01 23:50:00, 4.5, 5.9
